Flag for U.S.A. Weather past 2 weeks in Miami, Florida, U.S.A.

Now
72 °F

Passing clouds.


Feels Like: 73 °F
Forecast: 76 / 83 °F
Wind: No wind

Location: Miami International Airport

Current Time: Oct 20, 2014 at 7:27:13 AM

Latest Report: Oct 20, 2014 at 6:53 AM


Visibility: 10 mi

Pressure: 29.99 "Hg

Humidity: 76%

Dew point: 64 °F

Location of MiamiLocation

Historic Weather in Miami — Graph

°F

Miami temperature yesterday

Maximum temperature yesterday: 85 °F (at 1:53 PM)
Minimum temperature yesterday: 70 °F (at 5:53 AM)
Average temperature yesterday: 78 °F

Past Weeks' High & Low Weather Summary

 TemperatureHumidityPressure
High88 °F (Oct 8, 1:53 PM)94% (Oct 8, 6:53 AM)30.11 "Hg (Oct 8, 6:53 AM)
Low68 °F (Oct 18, 4:53 AM)36% (Oct 17, 3:53 PM)29.88 "Hg (Oct 16, 5:53 PM)
Average80 °F69%29.99 "Hg
* Reported Oct 5 5:53 AM — Oct 20 5:53 AM, Miami, Weather by CustomWeather, © 2014

Note: Actual official high and low records may vary slightly from our data, if they occured in-between our weather recording intervals... More about our weather records

Advertising

Miami weather history for previous 24 hours

 ConditionsComfort  
Time TempWeatherWind HumidityBarometerVisibility
5:53 AM
Oct 20
74 °FPassing clouds.No wind74%29.98 "Hg10 mi
4:53 AM74 °FPassing clouds.No wind71%29.98 "Hg10 mi
3:53 AM74 °FPassing clouds.No wind71%29.98 "Hg10 mi
2:53 AM75 °FPassing clouds.No wind69%29.99 "Hg10 mi
1:53 AM76 °FPassing clouds.5 mph67%29.99 "Hg10 mi
12:53 AM78 °FPassing clouds.5 mph62%30.01 "Hg10 mi
10:53 PM
Oct 19
79 °FPassing clouds.6 mph60%30.02 "Hg10 mi
9:53 PM78 °FPassing clouds.7 mph62%30.01 "Hg10 mi
8:53 PM78 °FPassing clouds.9 mph62%30.01 "Hg10 mi
7:53 PM80 °FPassing clouds.7 mph64%29.99 "Hg10 mi
6:53 PM80 °FPassing clouds.8 mph62%29.98 "Hg10 mi
5:53 PM81 °FScattered clouds.10 mph56%29.96 "Hg10 mi
4:53 PM84 °FScattered clouds.9 mph51%29.96 "Hg10 mi
3:53 PM83 °FBroken clouds.12 mph55%29.96 "Hg10 mi
2:53 PM85 °FBroken clouds.6 mph46%29.95 "Hg10 mi
1:53 PM85 °FScattered clouds.3 mph43%29.96 "Hg10 mi
12:53 PM84 °FScattered clouds.8 mph49%29.99 "Hg10 mi
11:53 AM82 °FPassing clouds.5 mph53%30.00 "Hg10 mi
10:53 AM80 °FPassing clouds.No wind56%30.00 "Hg10 mi
9:53 AM78 °FPassing clouds.5 mph64%30.01 "Hg10 mi
8:53 AM75 °FPassing clouds.5 mph74%30.00 "Hg10 mi
7:53 AM72 °FPassing clouds.3 mph91%29.98 "Hg10 mi
Weather by CustomWeather, © 2014

See weather overviewHow to use our weather pages